Santa Fe Municipal Airport Santa Fe US
ICAO: KSAF
IATA: SAF
Category: Medium
Scheduled Services: No

Elevation: 6348 ft
TransAlt. 18000 ft.

Airport Communications:
ATIS:128.55
ALBUQUERQUE CNTR:132.8
CTAF:119.5
GND:121.7
ALBUQUERQUE RDO:122.2
TWR:119.5
UNICOM:122.95

KSAF Zoom In..

If you have problems with the map follow the link
https://www.worldairports.se/pages/airport.php?
ICAO=KSAF

Runways:

(A) RW 02 length 8366 ft width 150 ft
ILS 111.70 / hdg 23

(B) RW 10 length 6301 ft width 75 ft
---- / hdg 100

(C) RW 15 length 6316 ft width 100 ft
---- / hdg 155

(D) RW 20 length 8366 ft width 150 ft
---- / hdg 203

(E) RW 28 length 6301 ft width 75 ft
---- / hdg 280

(F) RW 33 length 6316 ft width 100 ft
---- / hdg 335

Location; KSAF
Day. 19 / Time. 00.53 Zulu
* Altimeter: 30.33
* Temperature: -02° c. -28.4°f.
* Wind from: 230° Speed 06 kn.
Dewpoint: -11° c.
Visibility: 10 Statute Miles.
Clouds: Clear (automated report).

KSAF 190053Z 23006KT 10SM CLR M02/M11 A3033 RMK AO2 SLP300 T10171111


Wind From 230°
Speed 06 kn.

 
 
jpsmedia worldairports.se 2020   terms of use